Location: Piotrkow Trybunalski
(51.4000°N, 19.6830°E)
Time: 22:28:09
(UTC+01:00)

ISS - Pass Details

Date: 28 January 2020
Orbit: 415 x 423 km, 51.6° (Epoch: 25 February)

Event Time Altitude Azimuth Distance (km) Brightness Sun altitude
Rises 16:48:31 0° 238° (WSW) 2,374 2.6 -4.4°
Reaches altitude 10° 16:50:39 10° 233° (SW) 1,510 0.7 -4.7°
Maximum altitude 16:53:57 50° 157° (SSE) 547 -3.2 -5.2°
Drops below altitude 10° 16:57:13 10° 81° (E) 1,499 -1.6 -5.7°
Enters shadow 16:57:50 - 79° (E) 1,745 -1.3 -5.7°
